Sabadell, Spain

11:49 AM CEST on June 26, 2017 (GMT +0200)
Sabadell

Weather History for LELL - February, 2013

Change the Weather History Date:

Sunday, February 3, 2013

  Actual Average (LEBL) Record (LEBL)
Temperature  
Mean Temperature 50 °F -  
Max Temperature 55 °F 55 °F 64 °F (2000)
Min Temperature 44 °F 41 °F 32 °F (2012)
Degree Days  
Heating Degree Days 16    
Moisture  
Dew Point 10 °F    
Average Humidity 20    
Maximum Humidity 26    
Minimum Humidity 14    
Precipitation  
Precipitation 0.00 in - - ()
Sea Level Pressure  
Sea Level Pressure 30.06 in    
Wind  
Wind Speed 15 mph ()    
Max Wind Speed 24 mph    
Max Gust Speed 44 mph    
Averages and records for this station are not official NWS values.
T = Trace of Precipitation, MM = Missing Value Source: Averaged Metar Reports

Daily Weather History Graph

Daily Weather History Graph

Search for Another Location

Airport or City:

Trip Planner

Search our weather history database for the weather conditions in past years. The results will help you decide how hot, cold, wet, or windy it might be!

Date:

Astronomy

Feb. 03, 2013 Rise Set
Actual Time 8:01 AM CET 6:10 PM CET
Civil Twilight 7:32 AM CET 6:39 PM CET
Nautical Twilight 6:59 AM CET 7:12 PM CET
Astronomical Twilight 6:26 AM CET 7:44 PM CET
Moon 1:11 AM CET (2/3) 11:36 AM CET (2/3)
Length of Visible Light 11h 07m
Length of Day
10h 08m
Waning Gibbous, 51% of the Moon is Illuminated
Feb 3
Waning Gibbous
Feb 3
Last Quarter
Feb 10
New
Feb 17
First Quarter
Feb 25
Full

Hourly Weather History & Observations

Time (CET) Temp. Windchill Dew Point Humidity Pressure Visibility Wind Dir Wind Speed Gust Speed Precip Events Conditions
8:00 AM 44.6 °F 38.1 °F 6.8 °F 21% 29.98 in - NNW 13.8 mph 27.6 mph N/A   Clear
8:30 AM 46.4 °F 38.5 °F 5.0 °F 18% 30.01 in - NNW 21.9 mph 43.7 mph N/A   Clear
9:00 AM 46.4 °F 39.5 °F 3.2 °F 17% 30.01 in - NNW 17.3 mph 29.9 mph N/A   Clear
9:30 AM 46.4 °F 38.5 °F 3.2 °F 17% 30.04 in - NW 21.9 mph 33.4 mph N/A   Clear
10:00 AM 48.2 °F - 5.0 °F 17% 30.04 in - NNW 24.2 mph 40.3 mph N/A   Clear
10:30 AM 50.0 °F - 3.2 °F 15% 30.04 in - NNW 24.2 mph 35.7 mph N/A   Clear
11:00 AM 50.0 °F - 1.4 °F 14% 30.04 in - NW 19.6 mph - N/A   Clear
11:30 AM 51.8 °F - 10.4 °F 19% 30.04 in - WNW 15.0 mph - N/A   Clear
12:00 PM 51.8 °F - 8.6 °F 18% 30.04 in - West 15.0 mph - N/A   Clear
12:30 PM 53.6 °F - 10.4 °F 18% 30.06 in - West 16.1 mph - N/A   Clear
1:00 PM 53.6 °F - 15.8 °F 22% 30.06 in - West 16.1 mph - N/A   Clear
1:30 PM 53.6 °F - 14.0 °F 21% 30.06 in - WSW 15.0 mph - N/A   Clear
2:30 PM 55.4 °F - 15.8 °F 21% 30.06 in - WSW 15.0 mph - N/A   Clear
3:30 PM 55.4 °F - 15.8 °F 21% 30.06 in - West 15.0 mph - N/A   Clear
4:00 PM 55.4 °F - 14.0 °F 20% 30.09 in - WSW 12.7 mph - N/A   Clear
4:30 PM 55.4 °F - 15.8 °F 21% 30.09 in - West 13.8 mph - N/A   Clear
5:00 PM 53.6 °F - 15.8 °F 22% 30.12 in - WSW 9.2 mph - N/A   Clear
5:30 PM 51.8 °F - 15.8 °F 24% 30.12 in - West 12.7 mph - N/A   Clear
6:00 PM 50.0 °F - 15.8 °F 26% 30.15 in - West 9.2 mph - N/A   Clear